Stephenville, TX

6:37 AM CDT on July 28, 2017 (GMT -0500)
Clark Municipal

Weather History for KSEP - March, 2014

Change the Weather History Date:

Monday, March 10, 2014

  Actual Average Record
Temperature  
Mean Temperature 58 °F -  
Max Temperature 77 °F 68 °F 95 °F (1954)
Min Temperature 40 °F 43 °F 18 °F (1948)
Degree Days  
Heating Degree Days 6    
Growing Degree Days 8 (Base 50)    
Moisture  
Dew Point 41 °F    
Average Humidity 56    
Maximum Humidity 87    
Minimum Humidity 22    
Precipitation  
Precipitation 0.00 in - - ()
Sea Level Pressure  
Sea Level Pressure 30.06 in    
Wind  
Wind Speed 4 mph (SSW)    
Max Wind Speed 12 mph    
Max Gust Speed 20 mph    
Visibility 10 miles    
Events      
Averages and records for this station are not official NWS values.
T = Trace of Precipitation, MM = Missing Value Source: NWS Daily Summary

Daily Weather History Graph

Daily Weather History Graph

Search for Another Location

Airport or City:

Trip Planner

Search our weather history database for the weather conditions in past years. The results will help you decide how hot, cold, wet, or windy it might be!

Date:

Astronomy

Mar. 10, 2014 Rise Set
Actual Time 7:49 AM CDT 7:37 PM CDT
Civil Twilight 7:24 AM CDT 8:01 PM CDT
Nautical Twilight 6:56 AM CDT 8:30 PM CDT
Astronomical Twilight 6:27 AM CDT 8:58 PM CDT
Moon 2:35 PM CDT (3/10) 3:48 AM CDT (3/10)
Length of Visible Light 12h 36m
Length of Day
11h 48m
Waxing Gibbous, 70% of the Moon is Illuminated
Mar 10
Waxing Gibbous
Mar 16
Full
Mar 23
Last Quarter
Mar 30
New
Apr 7
First Quarter

Hourly Weather History & Observations

Time (CDT) Temp. Windchill Dew Point Humidity Pressure Visibility Wind Dir Wind Speed Gust Speed Precip Events Conditions
12:15 AM 43.7 °F - 34.7 °F 71% 30.22 in 10.0 mi Calm Calm - N/A   Clear
12:35 AM 41.9 °F - 34.0 °F 73% 30.21 in 10.0 mi Calm Calm - N/A   Clear
12:55 AM 43.0 °F - 34.5 °F 72% 30.21 in 10.0 mi Calm Calm - N/A   Clear
1:15 AM 44.1 °F - 34.3 °F 69% 30.21 in 10.0 mi Calm Calm - N/A   Clear
1:35 AM 43.3 °F - 34.0 °F 70% 30.21 in 10.0 mi Calm Calm - N/A   Clear
1:55 AM 41.4 °F - 33.6 °F 74% 30.21 in 10.0 mi Calm Calm - N/A   Clear
2:15 AM 41.0 °F - 33.8 °F 76% 30.20 in 10.0 mi Calm Calm - N/A   Clear
2:35 AM 41.9 °F - 34.0 °F 73% 30.20 in 10.0 mi Calm Calm - N/A   Clear
2:55 AM 42.1 °F - 34.2 °F 74% 30.20 in 10.0 mi Calm Calm - N/A   Clear
3:15 AM 41.2 °F - 34.3 °F 77% 30.19 in 10.0 mi Calm Calm - N/A   Clear
3:35 AM 41.5 °F - 34.7 °F 77% 30.17 in 10.0 mi Calm Calm - N/A   Clear
3:55 AM 42.1 °F - 34.9 °F 76% 30.16 in 10.0 mi Calm Calm - N/A   Clear
4:15 AM 41.5 °F 39.6 °F 35.1 °F 78% 30.16 in 10.0 mi South 3.5 mph - N/A   Clear
4:35 AM 40.5 °F 38.4 °F 35.2 °F 82% 30.15 in 10.0 mi SSW 3.5 mph - N/A   Clear
4:55 AM 40.8 °F 37.8 °F 35.4 °F 81% 30.15 in 10.0 mi South 4.6 mph - N/A   Clear
5:15 AM 40.6 °F 37.5 °F 36.0 °F 83% 30.15 in 10.0 mi SSW 4.6 mph - N/A   Clear
5:35 AM 42.1 °F 39.2 °F 36.7 °F 81% 30.15 in 10.0 mi SSW 4.6 mph - N/A   Clear
5:55 AM 41.9 °F 39.0 °F 36.5 °F 81% 30.14 in 10.0 mi SW 4.6 mph - N/A   Clear
6:15 AM 41.0 °F - 36.3 °F 83% 30.14 in 10.0 mi Calm Calm - N/A   Clear
6:55 AM 41.0 °F 38.0 °F 36.7 °F 85% 30.14 in 10.0 mi South 4.6 mph - N/A   Clear
7:15 AM 41.5 °F - 37.2 °F 85% 30.14 in 10.0 mi Calm Calm - N/A   Clear
7:35 AM 41.4 °F - 37.0 °F 85% 30.14 in 10.0 mi Calm Calm - N/A   Clear
7:55 AM 40.6 °F - 37.0 °F 87% 30.14 in 10.0 mi Calm Calm - N/A   Clear
8:15 AM 41.9 °F - 37.6 °F 85% 30.13 in 10.0 mi Calm Calm - N/A   Clear
8:35 AM 43.7 °F - 39.0 °F 84% 30.13 in 10.0 mi Calm Calm - N/A   Clear
8:55 AM 46.2 °F - 40.6 °F 81% 30.14 in 10.0 mi Calm Calm - N/A   Clear
9:15 AM 49.5 °F - 40.3 °F 71% 30.14 in 10.0 mi Calm Calm - N/A   Clear
9:35 AM 52.2 °F - 40.8 °F 65% 30.15 in 10.0 mi West 5.8 mph - N/A   Clear
9:55 AM 57.4 °F - 40.8 °F 54% 30.15 in 10.0 mi WSW 10.4 mph - N/A   Clear
10:15 AM 60.1 °F - 40.5 °F 48% 30.15 in 10.0 mi WSW 11.5 mph - N/A   Clear
10:35 AM 62.8 °F - 39.4 °F 42% 30.14 in 10.0 mi WSW 10.4 mph - N/A   Clear
10:55 AM 64.0 °F - 38.5 °F 39% 30.14 in 10.0 mi West 10.4 mph - N/A   Clear
11:15 AM 63.1 °F - 38.3 °F 40% 30.14 in 10.0 mi West 8.1 mph - N/A   Clear
11:35 AM 65.3 °F - 37.8 °F 36% 30.13 in 10.0 mi West 8.1 mph - N/A   Clear
11:55 AM 66.0 °F - 36.3 °F 33% 30.13 in 10.0 mi WSW 9.2 mph - N/A   Scattered Clouds
12:15 PM 68.7 °F - 35.4 °F 29% 30.12 in 10.0 mi WNW 8.1 mph - N/A   Scattered Clouds
12:35 PM 70.0 °F - 36.3 °F 29% 30.10 in 10.0 mi West 9.2 mph - N/A   Mostly Cloudy
12:55 PM 71.4 °F - 31.8 °F 23% 30.09 in 10.0 mi SW 5.8 mph 19.6 mph N/A   Scattered Clouds
1:15 PM 72.9 °F - 31.5 °F 22% 30.08 in 10.0 mi WSW 6.9 mph - N/A   Clear
1:35 PM 72.5 °F - 33.4 °F 24% 30.07 in 10.0 mi SW 8.1 mph - N/A   Clear
1:55 PM 74.1 °F - 33.8 °F 23% 30.05 in 10.0 mi SW 8.1 mph - N/A   Clear
2:15 PM 74.7 °F - 35.8 °F 24% 30.03 in 10.0 mi SW 9.2 mph - N/A   Clear
2:35 PM 75.4 °F - 36.9 °F 25% 30.01 in 10.0 mi South 6.9 mph - N/A   Clear
2:55 PM 75.4 °F - 38.5 °F 26% 29.99 in 10.0 mi South 10.4 mph - N/A   Clear
3:15 PM 76.1 °F - 38.5 °F 26% 29.98 in 10.0 mi SW 8.1 mph - N/A   Clear
3:35 PM 76.5 °F - 40.8 °F 28% 29.97 in 10.0 mi SSW 6.9 mph - N/A   Clear
3:55 PM 77.2 °F - 41.7 °F 28% 29.96 in 10.0 mi SW 11.5 mph - N/A   Clear
4:15 PM 77.0 °F - 42.3 °F 29% 29.94 in 10.0 mi SSW 6.9 mph - N/A   Clear
4:35 PM 76.5 °F - 43.3 °F 31% 29.94 in 10.0 mi SSW 8.1 mph 18.4 mph N/A   Clear
4:55 PM 76.6 °F - 44.1 °F 31% 29.93 in 10.0 mi SW 9.2 mph 16.1 mph N/A   Clear
5:15 PM 75.7 °F - 45.5 °F 34% 29.92 in 10.0 mi SSW 8.1 mph 16.1 mph N/A   Clear
5:35 PM 75.7 °F - 46.9 °F 36% 29.91 in 10.0 mi SSW 8.1 mph - N/A   Clear
5:55 PM 75.2 °F - 46.0 °F 35% 29.91 in 10.0 mi SSW 8.1 mph 19.6 mph N/A   Clear
6:15 PM 74.5 °F - 46.6 °F 37% 29.90 in 10.0 mi South 9.2 mph - N/A   Clear
6:35 PM 73.6 °F - 46.9 °F 39% 29.91 in 10.0 mi South 9.2 mph - N/A   Clear
6:55 PM 71.2 °F - 48.2 °F 44% 29.91 in 10.0 mi South 6.9 mph - N/A   Clear
7:20 PM 70.3 °F - 49.5 °F 47% 29.91 in 10.0 mi South 6.9 mph - N/A   Mostly Cloudy
7:35 PM 69.8 °F - 50.9 °F 51% 29.91 in 10.0 mi South 9.2 mph - N/A   Overcast
7:55 PM 68.5 °F - 50.9 °F 53% 29.91 in 10.0 mi South 8.1 mph - N/A   Overcast
8:15 PM 68.2 °F - 50.9 °F 54% 29.91 in 10.0 mi South 6.9 mph - N/A   Mostly Cloudy
8:35 PM 68.0 °F - 50.9 °F 54% 29.91 in 10.0 mi South 6.9 mph - N/A   Overcast
8:55 PM 66.9 °F - 50.5 °F 56% 29.92 in 10.0 mi South 5.8 mph - N/A   Mostly Cloudy
9:15 PM 65.5 °F - 50.4 °F 58% 29.92 in 10.0 mi South 4.6 mph - N/A   Scattered Clouds
9:35 PM 64.9 °F - 50.9 °F 60% 29.93 in 10.0 mi South 9.2 mph - N/A   Clear
9:55 PM 63.7 °F - 52.2 °F 66% 29.93 in 10.0 mi South 6.9 mph - N/A   Clear
10:15 PM 62.6 °F - 52.7 °F 70% 29.93 in 10.0 mi South 8.1 mph - N/A   Clear
10:35 PM 62.2 °F - 52.7 °F 71% 29.93 in 10.0 mi South 10.4 mph 16.1 mph N/A   Clear
10:55 PM 61.3 °F - 52.2 °F 72% 29.92 in 10.0 mi South 8.1 mph - N/A   Clear
11:15 PM 60.8 °F - 52.0 °F 73% 29.91 in 10.0 mi South 6.9 mph - N/A   Scattered Clouds
11:35 PM 60.3 °F - 52.0 °F 74% 29.90 in 10.0 mi South 5.8 mph - N/A   Scattered Clouds